Погода в Алексееве

Россия / Рязанская область     55°07′06″N   40°53′52″E
темп.,
°C
ветер,
м/с
пор.,
м/с
влажн.,
%
обл.,
%
осадки,
мм/ч
давл.,
гПа
погр.,
м
11 апреля, вс
вс1100:00+2юз11710 0.0 102710
03:00+1зюз11700 0.0 102810
06:00+2зюз11700 0.0 102910
09:00+8юз1149100 0.0 1030293
12:00+12юз11405 0.0 1030951
15:00+14с1237100 0.0 10301207
18:00+11в245786 0.0 1030102
21:00+7всв257264 0.0 103280
12 апреля, пн
пн1200:00+5всв2580100 0.0 1033113
03:00+4всв31076100 0.0 1034228
06:00+4всв41477100 0.0 1034358
09:00+8всв51562100 0.0 1034576
12:00+12в5956100 0.0 1033766
15:00+13в4763100 0.0 1032817
18:00+12в41076100 0.0 1031607
21:00+9в4109159 0.0 1031310
13 апреля, вт
вт1300:00+8вюв3109572 0.0 1030260
03:00+7вюв3994100 0.0 1030149
06:00+7юв279156 0.0 1029130
09:00+14ююв495961 0.0 1029394
12:00+18ююв473555 0.0 1028965
15:00+20ю5830100 0.0 10271729
18:00+17ююв374672 0.0 1026185
21:00+12ююв3105913 0.0 1026159
14 апреля, ср
ср1400:00+10ююв3126754 0.0 1026232
03:00+8ююв37720 0.0 1026116
06:00+7юв377414 0.0 1025132
09:00+13ююв3756100 0.0 1025344
12:00+18ююв473997 0.0 10231064
15:00+19ююв463499 0.0 10221468
18:00+16юв245096 0.0 102186
21:00+11юв246049 0.0 102148
15 апреля, чт
чт1500:00+9юв2467100 0.0 102060
03:00+8ююв2272100 0.0 102034
06:00+8юв2473100 0.0 101972
09:00+13ююв3556100 0.0 1018279
12:00+17ююв3443100 0.0 1017870
15:00+19ю3437100 0.0 10161956
18:00+16ю1151100 0.0 101611
21:00+12юв1160100 0.0 101610